Weather in Kutuzovka

Russia / Omsk Oblast     54°27′58″N   72°31′16″E
temp.,
°C
wind,
m/s
gust,
m/s
humid.,
%
clouds,
%
prec.,
mm/h
press.,
hPa
HPBL,
m
16 april, fri
fri1600:00+4w489211 0.0 1021133
03:00+4wsw410835 0.0 1019139
06:00+3wsw411795 0.0 1018163
09:00+8wsw5117197 0.0 1017255
12:00+12w696425 0.0 1017413
15:00+14n8772100 0.1 10171027
18:00+8nne71181100 0.1 1020708
21:00+6nne497549 0.0 1023776
17 april, sat
sat1700:00+4nne510785 0.0 1024412
03:00+1nne48865 0.0 1025317
06:000nne36915 0.0 1027200
09:00+1ne33655 0.0 1027500
12:00+4n23470 0.0 10271003
15:00+6wnw23370 0.0 10251352
18:00+7w35395 0.0 10231526
21:00+5sw22575 0.0 102221
18 april, sun
sun1800:00+4ssw35675 0.0 102075
03:00+3sw4871100 0.0 1017150
06:00+2sw51275100 0.0 1014208
09:00+6wsw71368100 0.0 1011731
12:00+9w11155197 0.1 10092220
15:00+7wnw11175283 0.6 10112048
18:00+2nnw11146256 0.6 10161558
21:00−3n9146394 0.1 10221381
19 april, mon
mon1900:00−4n812522 0.1 10251199
03:00−5nnw795317 0.0 10281190
06:00−6nnw684976 0.0 10311280
09:00−6n784035 0.0 10331344
12:00−3n6733100 0.0 10331807
15:00−2n6731100 0.0 10342143
18:00−2n6732100 0.0 10342078
21:00−4n354414 0.0 1035163
20 april, tue
tue2000:00−4n25495 0.0 1036188
03:00−4nnw24500 0.0 1036212
06:00−5nw22500 0.0 103678
09:00−2wnw34355 0.0 1036972
12:00+1w56285 0.0 10341512
15:00+4w78295 0.0 10311646
18:00+5w7103663 0.0 10281707
21:00+2w6134795 0.0 1027406